{"data":{"norad_id":56547,"intl_designator":"2023-065AW","name":"STARLINK-6291","alt_names":[],"object_type":"PAYLOAD","status":"ACTIVE","operator":null,"country":"US","launch_date":"2023-05-14","launch_site_code":"AFETR","launch_vehicle":null,"mission":null,"orbit_class":"UNKNOWN","rcs_meters":null,"size_class":null,"mass_kg":null,"dimensions":null,"purposes":["comms"],"wikipedia_slug":null,"has_3d_model":false,"image_url":null,"decayed_at":null,"tle_current":{"epoch":"2026-05-25T01:33:06.100416Z","epoch_age_seconds":79545,"freshness":"FRESH","line1":"1 56547U 23065AW  26145.06465394 -.00000216  00000+0  16800-5 0  9997","line2":"2 56547  43.0031 152.1767 0001150 305.7051  54.3693 15.27575935168157","mean_motion":15.27575935,"eccentricity":0.000115,"inclination_deg":43.0031,"raan_deg":152.1767,"arg_perigee_deg":305.7051,"mean_anomaly_deg":54.3693,"bstar":1.68e-6,"rev_number":16815,"period_min":94.266999564902,"perigee_km":482.27223033819,"apogee_km":483.85030593986,"semimajor_km":6861.198268139,"source":"CELESTRAK","updated_at":"2026-05-25T13:38:18.115940Z"}}}